TIME,DELAY(SENSOR),PRES,T(CTD),SAL,OXYGEN,RAWTEMP,T(OPTODE),TCPHASE,FLUOR,BETA(BETA700),BETA(BETA412),BETA(BETA440),CDOM,C(CSC),ED(ED412.40),ED(ED444.00),ED(ED489.70),ED(ED554.30),LU(LU411.80),LU(LU443.40),LU(LU489.60),LU(LU554.10),COMP,TILTX,TILTX(TILTY),CHECK
1380058408,5809,497.8399963378906000,6.7112002372741700,34.1380996704101560,75.4659881591796900,596.7172241210938000,6.6902642250061035,49.4016609191894500,51,102,84,79,77,15255,2147749184,2147427401,2148010121,2147872996,2147626834,2147070628,2148248064,2147201746,1315,4,13,4071
1380058561,5808,485.0299987792969000,6.8035998344421390,34.1385002136230500,79.6741409301757800,593.3073120117188000,6.8002548217773440,48.8518905639648440,52,103,87,79,76,15254,2147745389,2147425764,2148010834,2147873206,2147626688,2147076662,2148242130,2147204077,3539,3,13,353
1380058676,5806,473.8800048828125000,6.9914999008178710,34.1091003417968750,89.4506988525390600,587.7335815429688000,6.9798069000244140,47.6441307067871100,52,102,86,78,77,15255,2147746432,2147422518,2148009270,2147873472,2147625563,2147076790,2148244608,2147201499,2330,4,13,64914
1380058793,5805,462.4899902343750000,7.2708997726440430,34.1105995178222660,96.3257064819336000,579.2977905273438000,7.2510190010070800,46.7628593444824200,52,102,87,80,77,15254,2147745974,2147426020,2148009481,2147868918,2147624822,2147079798,2148246482,2147199972,1331,3,13,52488
1380058908,5809,451.1199951171875000,7.3755002021789550,34.1068000793457000,105.2074966430664000,575.9760742187500000,7.3576321601867680,45.7758102416992200,51,104,82,81,75,15254,2147745252,2147425654,2148007597,2147872082,2147625618,2147078144,2148241536,2147201910,3359,4,13,38021
1380059023,5809,439.5599975585937500,7.6128997802734375,34.0877990722656250,119.8161010742187500,568.5332031250000000,7.5961699485778810,44.2114982604980500,50,101,87,79,75,15253,2147746450,2147425645,2148005906,2147873563,2147623597,2147079561,2148241728,2147203693,2810,3,13,54593
1380059128,5808,429.1000061035156000,7.7597999572753910,34.0839004516601560,129.9752044677734400,563.6690063476562000,7.7518019676208500,43.1886901855468750,51,102,86,79,74,15256,2147745261,2147424539,2148007853,2147871798,2147622921,2147082477,2148235401,2147204653,2187,4,13,58174
1380059243,5805,417.8599853515625000,7.8977999687194820,34.0857009887695300,134.2431945800781200,559.1486816406250000,7.8962459564208980,42.7309494018554700,51,104,85,79,74,15256,2147744557,2147426139,2148008073,2147871003,2147620882,2147086262,2148236224,2147200036,1520,3,13,24874
1380059358,5809,407.2099914550781000,8.0544996261596680,34.0875015258789060,139.1855010986328000,554.8187255859375000,8.0344533920288090,42.2257614135742200,51,103,85,79,74,15252,2147743460,2147426505,2148010761,2147871899,2147622409,2147082898,2148237046,2147203456,678,3,13,18933
1380059487,5809,396.2600097656250000,8.4610996246337890,34.0946006774902340,145.4087982177734400,542.0568847656250000,8.4408702850341800,41.4796600341796900,50,104,85,80,73,15255,2147743954,2147425051,2148007926,2147870262,2147620269,2147088091,2148231259,2147201133,2739,3,13,38225
1380059626,5808,385.2200012207031000,8.6450996398925780,34.0988006591796900,151.7277984619140600,536.1032104492188000,8.6300220489501950,40.8595390319824200,50,104,88,79,73,15253,2147742025,2147429366,2148009225,2147870966,2147617234,2147085174,2148234121,2147202221,2071,4,13,56315
1380059767,5810,374.3299865722656000,8.9159002304077150,34.0970001220703100,160.0594940185547000,527.7036743164062000,8.8964061737060550,40.0586814880371100,50,104,84,80,73,15254,2147739154,2147426221,2148007881,2147872027,2147619565,2147095817,2148233334,2147201325,381,4,13,28932
1380059906,5808,363.3200073242187500,9.2222003936767580,34.1002006530761700,168.8197937011718800,517.6389770507812000,9.2148895263671880,39.2273788452148440,50,105,84,80,72,15253,2147739657,2147427309,2148009929,2147871899,2147616914,2147095442,2148230290,2147206144,274,3,13,48520
1380060053,5806,351.6499938964844000,9.6789999008178710,34.1106986999511700,178.1994018554687500,503.2500000000000000,9.6689090728759770,38.3092193603515600,50,106,84,79,71,15252,2147737362,2147426816,2148012617,2147870262,2147613376,2147096182,2148228132,2147202505,2857,3,13,4626
1380060186,5810,339.4500122070312500,10.1543998718261720,34.1274986267089840,182.3005065917968800,488.5291137695312500,10.1318998336792000,37.7773094177246100,50,107,89,80,71,15245,2147736502,2147428882,2148013156,2147868498,2147610249,2147101522,2148230345,2147201115,2194,3,13,56155
1380060313,5810,328.3200073242187500,10.6225996017456050,34.1324996948242200,180.8119964599609400,472.8049011230469000,10.6248397827148440,37.6141815185546900,50,104,87,79,70,15250,2147736475,2147429202,2148018925,2147871186,2147609106,2147104091,2148226486,2147203547,2349,2,13,20785
1380060454,5807,317.7300109863281000,11.0783996582031250,34.1282997131347660,172.1015014648437500,458.6176147460937500,11.0682802200317380,37.9906692504882800,50,104,88,80,70,15248,2147732717,2147428900,2148022052,2147870701,2147605750,2147108800,2148224896,2147205705,2620,3,13,58580
1380060617,5807,306.4400024414062500,11.8669996261596680,34.1404991149902340,180.0543975830078000,432.8062133789062500,11.8720397949218750,37.0083694458007800,48,103,87,80,71,15251,2147729965,2147431094,2148028790,2147869376,2147603730,2147115264,2148218880,2147204964,1713,3,13,14116
1380060746,5806,294.8699951171875000,12.3896999359130860,34.1657981872558600,186.1681976318359400,415.9519958496094000,12.3949699401855470,36.3246994018554700,48,106,85,80,69,15246,2147727378,2147436105,2148037833,2147871488,2147601709,2147126235,2148226880,2147208749,908,3,13,38482
1380060848,5810,283.8399963378906000,12.9059000015258790,34.2085990905761700,191.1360015869140600,394.3493041992187500,13.0632600784301760,35.6589202880859400,49,105,82,79,67,15244,2147727469,2147438208,2148039972,2147868928,2147598235,2147125668,2148222381,2147209033,3524,3,14,18766
1380060951,5808,273.3599853515625000,13.6701002120971680,34.2723007202148440,198.8993988037109400,373.2148132324219000,13.7151403427124020,34.8445014953613300,48,103,88,80,67,15247,2147727661,2147447314,2148071488,2147870454,2147595757,2147134409,2148236004,2147207232,124,3,14,3996
1380061094,5808,262.8399963378906000,14.3051996231079100,34.3362998962402340,202.9076995849609400,354.6242980957031000,14.2871799468994140,34.3190498352050800,49,109,86,78,67,15240,2147722733,2147439844,2148043995,2147870637,2147591625,2147140836,2148219949,2147209938,2632,3,14,435
1380061293,5810,252.6399993896484400,15.0756998062133790,34.4239006042480500,205.5724029541015600,329.9201049804687500,15.0456495285034180,33.7919692993164060,49,104,86,79,67,15242,2147723053,2147461769,2148106194,2147869696,2147585600,2147152868,2148245915,2147213403,1854,3,14,50121
1380061463,5811,240.4499969482422000,15.9338998794555660,34.5303993225097660,211.0814056396484400,300.8511962890625000,15.9361400604248050,33.0502586364746100,50,105,86,80,66,15240,2147715776,2147447369,2148052315,2147871570,2147581010,2147149467,2148220050,2147212498,898,3,14,5562
1380061590,5810,228.7200012207031200,16.4260005950927730,34.5940017700195300,212.8795013427734400,285.0675048828125000,16.4189605712890620,32.7223396301269500,50,105,85,79,66,15239,2147714733,2147454345,2148051364,2147871826,2147579081,2147155968,2148217773,2147210870,215,3,14,44484
1380061707,5806,218.2799987792968800,17.0189990997314450,34.6663017272949200,212.2003936767578000,265.5364074707031000,17.0159301757812500,32.4813117980957000,50,105,87,80,65,15236,2147734930,2147618532,2148475053,2147871899,2147584073,2147259117,2148414473,2147227328,2623,2,15,47749
1380061846,5808,207.4700012207031200,17.6919994354248050,34.7713012695312500,215.2505950927734400,243.5632019042968800,17.6871395111084000,32.0055618286132800,50,104,87,80,63,15236,2147717860,2147479085,2148100790,2147870811,2147575917,2147187099,2148225801,2147218523,1218,3,14,48116
1380061985,5809,197.8099975585937500,17.9983997344970700,34.8184013366699200,216.8818969726562500,232.7091979980468800,18.0186100006103500,31.7667903900146500,50,105,86,78,63,15231,2147781129,2147852205,2148928832,2147870198,2147598738,2147402907,2148633508,2147245257,878,2,14,1639
1380062040,5810,194.5899963378906200,18.4615993499755860,34.8828010559082000,216.4902954101562500,217.4967956542968800,18.4831600189209000,31.5780296325683600,51,104,85,80,63,15233,2147797129,2147921353,2149056841,2147875126,2147605184,2147446134,2148701933,2147253814,507,2,15,3142
1380062119,5809,190.2899932861328000,18.6888999938964840,34.9199981689453100,218.2637023925781200,210.7198944091797000,18.6901397705078120,31.3911495208740230,51,104,81,81,62,15230,2147771081,2147763611,2148670573,2147872521,2147592539,2147353874,2148497581,2147237174,3264,2,15,20189
1380062186,5807,186.6499938964843800,18.7886009216308600,34.9379997253418000,219.4833984375000000,207.6452941894531200,18.7840499877929700,31.2850303649902340,52,103,86,79,63,15233,2147815012,2147947684,2149058569,2147876416,2147609517,2147467181,2148686921,2147251986,2986,2,15,47
1380062253,5809,183.0500030517578000,18.8271007537841800,34.9453010559082000,220.1228942871093800,206.2483978271484400,18.8267097473144530,31.2327899932861330,52,103,86,79,63,15232,2147765229,2147704941,2148549257,2147871817,2147587090,2147341129,2148458934,2147235273,3032,2,15,13876
1380062322,5811,179.7500000000000000,19.1518001556396500,34.9888992309570300,219.3941040039062500,196.5101928710937500,19.1242008209228500,31.1386699676513670,53,102,86,80,64,15232,2147785764,2147784155,2148679853,2147874331,2147596690,2147381814,2148518518,2147243821,2605,2,15,25800
1380062425,5809,175.7100067138672000,19.1811008453369140,34.9967002868652340,220.0558013916015600,194.6961975097656200,19.1796207427978500,31.0797195434570300,53,104,87,81,63,15227,2147932132,2148341622,2149793069,2147874934,2147657069,2147723977,2149062454,2147276937,1936,2,15,8228
1380062516,5806,171.8999938964843800,19.5790996551513670,35.0512008666992200,220.1320953369140600,182.5932006835937500,19.5494804382324220,30.9123802185058600,53,104,84,79,62,15224,2147969746,2148431652,2149937334,2147876443,2147672009,2147785398,2149137764,2147285604,1964,2,15,13462
1380062621,5807,167.4199981689453000,19.7203006744384770,35.0740013122558600,220.6562042236328000,176.9906005859375000,19.7207508087158200,30.8102302551269530,53,103,86,81,62,15223,2148033389,2148575058,2150170907,2147876032,2147700224,2147883190,2149253833,2147291931,2083,1,15,54900
1380062700,5805,163.5599975585937500,19.8717002868652340,35.0992012023925800,221.0068054199218800,172.2424011230468800,19.8659305572509770,30.7288703918457030,55,107,84,81,61,15223,2148098093,2148727204,2150421915,2147880347,2147731648,2147986916,2149384073,2147303049,1001,2,15,33779
1380062779,5808,159.6300048828125000,20.0727005004882800,35.1283988952636700,221.6575927734375000,165.9481048583984400,20.0584392547607420,30.6116504669189450,55,103,86,80,62,15222,2148175826,2148908214,2150722742,2147882834,2147764854,2148097929,2149535670,2147311204,305,2,15,21545
1380062858,5808,155.7799987792968800,20.3327007293701170,35.1689987182617200,222.9019927978515600,158.3786010742187500,20.2900390625000000,30.4477806091308600,55,103,85,79,61,15221,2148267392,2149109979,2151050212,2147885019,2147809874,2148239259,2149709485,2147327698,458,2,15,51323
1380062951,5809,152.0500030517578000,20.3848991394042970,35.1725997924804700,224.4149017333984400,155.8697967529297000,20.3668193817138670,30.3382205963134770,57,105,89,80,62,15220,2148374966,2149339492,2151412041,2147887296,2147860489,2148388324,2149885394,2147343451,1008,1,15,12043
1380063090,5811,148.1799926757812500,20.5650005340576170,35.2016983032226560,225.2341003417968800,149.8816986083984400,20.5501308441162100,30.2183303833007800,59,103,87,80,61,15218,2148494784,2149535378,2151693513,2147893796,2147920420,2148524525,2150039360,2147350994,1946,1,16,18385
1380063265,5807,143.8800048828125000,20.8222007751464840,35.2392005920410160,226.3793029785156200,141.4288024902343800,20.8090305328369140,30.0504093170166000,62,106,85,81,61,15213,2148691565,2149923264,2152331538,2147897270,2148015798,2148779355,2150359789,2147371492,2402,2,15,12406
1380063356,5810,139.6300048828125000,20.8999996185302730,35.2226982116699200,227.3954925537109400,138.4907073974609400,20.8990592956542970,29.9620094299316400,68,108,86,80,61,15208,2148904768,2150330148,2153009417,2147906614,2148124123,2149044452,2150704384,2147400484,2307,2,15,47116
1380063435,5807,135.4600067138672000,20.8729000091552730,35.2103004455566400,228.2348022460937500,139.4360961914062500,20.8700904846191400,29.9332408905029300,70,108,88,81,58,15208,2149207158,2150907904,2153944886,2147919853,2148268864,2149414418,2151159049,2147436946,2242,2,15,3457
1380063514,5805,130.8899993896484400,21.0478992462158200,35.2078018188476560,228.0496978759765600,134.6445007324218800,21.0169391632080080,29.8797798156738280,73,110,87,81,62,15203,2149487844,2151383360,2154677266,2147931520,2148407460,2149710025,2151512301,2147464914,1645,2,15,19296
1380063583,5807,127.3399963378906200,21.1341991424560550,35.2204017639160160,228.5395050048828000,131.3404998779297000,21.1182308197021500,29.8126506805419920,81,112,87,81,60,15194,2149586038,2151432036,2154635218,2147938112,2148452827,2149724041,2151474788,2147466541,1838,1,15,7465
1380063662,5812,123.7799987792968800,21.1819000244140620,35.2263984680175800,228.8545989990234400,129.4989013671875000,21.1747093200683600,29.7735500335693360,87,113,87,83,61,15191,2149983506,2152109622,2155690752,2147960000,2148639131,2150142080,2151979026,2147501705,1402,2,15,47105
1380063765,5811,119.7500000000000000,21.3092002868652340,35.2364997863769500,228.9358978271484400,125.7738037109375000,21.2889595031738280,29.7212390899658200,86,114,90,81,60,15182,2150671094,2153291209,2157533540,2147988781,2148959963,2150846098,2152849874,2147571684,640,1,15,57558
1380063910,5808,115.4599990844726600,21.5021991729736330,35.2546005249023440,229.5303039550781200,119.3790969848632800,21.4851799011230470,29.6095504760742200,97,115,87,79,59,15170,2151858989,2155279140,2160679826,2148053266,2149479195,2151902774,2154201371,2147682971,22,2,15,23852
1380064013,5807,111.8499984741211000,21.7136993408203120,35.2722015380859400,230.6405944824218800,112.4529037475586000,21.6978397369384770,29.4667396545410160,113,120,87,82,61,15161,2152785426,2156606098,2162514724,2148107136,2149845467,2152467126,2154857060,2147743853,3566,1,15,48449
1380064128,5811,108.0800018310546900,21.8096008300781250,35.2803001403808600,232.4461059570312500,109.1365966796875000,21.7997093200683600,29.3381099700927730,111,119,87,82,61,15146,2151491666,2153858066,2157693824,2148030966,2149215323,2150688466,2152474212,2147569234,2870,1,15,38663
1380064236,5810,103.3000030517578100,21.9057998657226560,35.2886009216308600,233.1752014160156200,105.7108001708984400,21.9049892425537100,29.2595996856689450,123,118,90,82,61,15139,2154494710,2158615917,2164642413,2148195840,2150463771,2152938825,2155248073,2147819840,1714,1,15,19354
1380064315,5807,99.1200027465820300,22.1777000427246100,35.3125000000000000,234.0511016845703000,97.8705673217773400,22.1460494995117200,29.1181793212890620,132,116,88,82,59,15136,2156421632,2161309083,2168154176,2148313572,2151207305,2154031030,2156512722,2147959652,1404,2,15,64525
1380064370,5809,96.4300003051757800,22.3423004150390620,35.3297004699707000,235.6419067382812500,91.4612579345703100,22.3432807922363280,28.9620704650878900,124,117,87,83,60,15131,2159456841,2165910985,2174540571,2148510601,2152407963,2156028736,2158933321,2148192228,1501,1,15,40487
1380064425,5807,94.1299972534179700,22.4447994232177730,35.3395996093750000,238.2173004150390600,88.6180267333984400,22.4308109283447270,28.8071193695068360,117,117,88,81,59,15136,2159194477,2165170816,2173036864,2148498514,2152285595,2155565933,2158297856,2148142518,1305,2,15,41851
1380064480,5809,92.1299972534179700,22.5296993255615230,35.3414001464843750,239.3748016357422000,85.8189468383789000,22.5170192718505860,28.7189693450927730,105,113,89,82,60,15141,2160790061,2167247606,2175519140,2148605961,2152899721,2156381549,2159147355,2148241746,727,1,15,797
1380064549,5807,90.0699996948242200,22.6453990936279300,35.3413009643554700,240.3692016601562500,82.1002273559570300,22.6315994262695300,28.6268100738525400,98,115,89,82,58,15133,2158681179,2163563090,2169770331,2148465554,2152092580,2154729627,2157003181,2148048557,116,2,15,37114
1380064628,5805,88.2200012207031200,22.7432994842529300,35.3418998718261700,241.4273986816406200,78.7265167236328100,22.7355899810791000,28.5365104675292970,92,115,89,82,58,15137,2162680155,2169277229,2177239606,2148728347,2153851922,2157534564,2160250569,2148365165,3162,1,16,9183
1380064719,5810,86.4599990844726600,22.8812999725341800,35.3452987670898440,242.3551940917968800,74.3184661865234400,22.8715190887451170,28.4396095275878900,89,115,87,82,61,15127,2164274633,2171156653,2179076169,2148836278,2154584612,2158471588,2161089737,2148456640,3054,1,15,57890
1380064834,5809,84.3799972534179700,22.9164009094238280,35.3488006591796900,243.4774932861328000,73.0185165405273400,22.9116306304931640,28.3731002807617200,86,117,88,83,59,15128,2159565622,2163687579,2168302317,2148488594,2152717641,2155060480,2156785920,2148051108,1888,1,16,25265
1380064918,5811,81.7600021362304700,22.9405002593994140,35.3498992919921900,243.9403076171875000,72.1799087524414000,22.9375000000000000,28.3420600891113280,82,116,89,82,59,15125,2160161718,2163879698,2167790043,2148517833,2153069577,2155289526,2156741485,2148057435,1337,1,16,5981
1380064973,5807,79.0699996948242200,23.0380001068115230,35.3489990234375000,244.1688995361328000,68.3519210815429700,23.0556507110595700,28.2842597961425780,78,119,90,83,58,15128,2161261906,2164827200,2168333476,2148590976,2153647177,2155870820,2157116790,2148110052,1402,1,16,30686
1380065028,5807,76.4199981689453100,23.2733993530273440,35.3530998229980500,245.2465972900390600,61.8599891662597660,23.2561492919921880,28.1557903289794920,77,117,89,83,58,15119,2162100032,2165467584,2168629147,2148660617,2154167899,2156378779,2157412708,2148153289,966,1,16,30866
1380065083,5809,74.0299987792968800,23.2989006042480470,35.3558006286621100,246.3972015380859400,60.6663513183593750,23.2930393218994140,28.0903892517089840,74,121,88,83,57,15122,2163092416,2166293888,2169161444,2148759168,2154775552,2156987419,2157797476,2148209728,525,1,15,19162
1380065138,5807,71.6100006103515600,23.3118000030517580,35.3558006286621100,247.0256958007812500,60.1615295410156250,23.3086395263671880,28.0566101074218750,71,119,89,84,58,15118,2164208320,2167230720,2169805165,2148859648,2155453403,2157665206,2158245641,2148265938,3519,2,15,25426
1380065195,5808,69.0699996948242200,23.3421001434326170,35.3559989929199200,247.3242034912109400,59.2750205993652340,23.3360404968261720,28.0325603485107420,70,119,86,83,58,15118,2165366902,2168127387,2170359917,2148987126,2156169563,2158358619,2158675117,2148329846,2960,2,15,8068
1380065250,5809,66.7399978637695300,23.4682998657226560,35.3554992675781250,247.3202972412109400,55.1878890991210940,23.4624099731445300,27.9821701049804700,71,119,92,83,58,15114,2166216100,2168652982,2170523017,2149071232,2156723300,2158822089,2158888301,2148369746,2385,1,15,3697
1380065305,5808,64.8000030517578100,23.6245994567871100,35.3555984497070300,247.8739013671875000,50.4486083984375000,23.6090393066406250,27.8993492126464840,69,119,89,84,59,15116,2166727067,2168789056,2170322560,2149127734,2157116635,2159078720,2158939346,2148388041,1452,1,16,63525
1380065360,5808,63.3800010681152340,23.9011993408203120,35.3518981933593750,248.6062927246093800,42.1397094726562500,23.8663692474365230,27.7651901245117200,69,122,93,83,57,15114,2166710774,2168483090,2169746523,2149138340,2157267200,2159095186,2158790976,2148379766,1051,1,16,59274
1380065540,5809,61.0499992370605500,24.0806999206542970,35.3572006225585940,250.9120025634765600,35.5545501708984400,24.0705394744873050,27.5854892730712900,66,121,90,84,57,15109,2166908068,2168056923,2168729499,2149165805,2157710354,2159198326,2158506779,2148362075,341,1,16,44169
1380065595,5806,59.0600013732910160,24.1681003570556640,35.3535995483398440,251.5877990722656200,33.8503799438476560,24.1234092712402340,27.5358600616455080,66,122,92,84,59,15108,2168209051,2169148873,2169619785,2149354880,2158657078,2160085001,2159108982,2148459163,3268,1,15,64408
1380065650,5808,57.0200004577636700,24.2054004669189450,35.3557014465332000,251.7151947021484400,32.0046882629394500,24.1806907653808600,27.5079708099365230,65,122,89,85,58,15103,2169723099,2170456429,2170735597,2149575250,2159729755,2161122002,2159833435,2148566171,139,1,16,3390
1380065705,5811,54.9599990844726560,24.2528991699218750,35.3566017150878900,252.3356018066406200,29.9006404876709000,24.2460098266601560,27.4559497833251950,65,121,92,85,60,15096,2171620790,2172134866,2172188370,2149808100,2161023488,2162363026,2160715803,2148691821,569,1,16,38329
1380065760,5808,53.0299987792968750,24.3050994873046880,35.3590011596679700,252.6616973876953000,28.3194103240966800,24.2951202392578120,27.4229297637939450,66,122,91,84,56,15096,2173634642,2173856603,2173694793,2150153472,2162351680,2163628589,2161621458,2148838573,1092,1,16,36076
1380065844,5807,50.0900001525878900,24.6305007934570300,35.3516006469726560,252.1985931396484400,19.5372505187988280,24.5680809020996100,27.3351192474365230,64,125,90,85,56,15078,2177687497,2177356653,2176660946,2150690276,2165252736,2166333229,2163468708,2149119661,462,1,15,15182
1380065899,5808,48.3499984741210940,24.8992004394531250,35.3679008483886700,251.7144012451172000,9.5352973937988280,24.8794593811035160,27.2335605621337900,63,123,92,86,56,15097,2179950848,2179294025,2178290038,2150989878,2166991003,2167910619,2164527085,2149279561,2599,1,16,36666
1380065954,5812,47.2299995422363300,25.0242004394531250,35.3669013977050800,251.3269042968750000,5.5861468315124510,25.0025596618652340,27.2018508911132800,63,121,91,85,54,15094,2181598162,2180627209,2179406080,2151301065,2168335771,2169094793,2165302829,2149409517,2439,1,16,57584
1380066045,5810,45.5000000000000000,25.1562995910644530,35.3586997985839840,250.7915954589843800,1.4638069868087769,25.1311492919921880,27.1742897033691400,63,122,92,84,56,15086,2184312338,2182973083,2181454089,2151747072,2170478592,2171035456,2166607945,2149623771,2135,1,16,56985
1380066153,5813,42.7999992370605500,25.3621997833251950,35.3353004455566400,249.2792053222656200,-7.3894500732421875,25.4076690673828120,27.1305503845214840,61,124,91,85,59,15084,2189760429,2187778934,2185760749,2152886720,2174779876,2174974756,2169350162,2150103908,2700,0,16,33655
1380066208,5805,40.9700012207031250,25.7779998779296880,35.3433990478515600,247.3083038330078000,-17.4502201080322270,25.7224693298339840,27.0923309326171880,61,123,89,86,56,15085,2193298249,2190986541,2188693604,2153617965,2177664813,2177596681,2171169938,2150430729,3139,1,16,48878
1380066299,5808,39.7700004577636700,25.8278999328613280,35.3475990295410160,246.3750000000000000,-20.1700191497802730,25.8076801300048830,27.0992393493652340,62,122,88,84,57,15087,2196275730,2193779657,2191370358,2154258852,2180080292,2179918628,2172897408,2150715721,2434,1,17,8081
1380066575,5806,37.7599983215332000,26.3845005035400400,35.3700981140136700,241.2292938232422000,-37.8226394653320300,26.3619308471679700,27.1073799133300780,58,124,93,88,57,15085,2219955675,2216471314,2212757933,2158528310,2199807478,2198530761,2186187849,2152775232,2072,1,16,15500
1380066767,5808,34.9900016784668000,26.9456005096435550,35.4342994689941400,236.7312011718750000,-55.5678100585937500,26.9212398529052730,27.0901908874511720,59,149,93,86,56,15083,2257610633,2253971437,2249474486,2167441554,2233238637,2230825636,2209895396,2156785645,2006,0,16,33560